Home > Time Zones > World Clock > Weather > Norway > Odda > Past weeks

Flag for Norway Weather past 2 weeks in Odda, Norway

Now
36 °F

Chilly.


Feels Like: 36 °F
Forecast: 40 / 47 °F
Wind: 1 mph from East

Location: Vaagsli

Current Time: May 7, 2015 at 9:50:30 AM

Latest Report: May 7, 2015 at 9:00 AM


Visibility: N/A

Pressure: 29.50 "Hg

Humidity: 89%

Dew point: 33 °F

Location of OddaLocation

Historic Weather in Odda — Graph

°F

Odda temperature yesterday

Maximum temperature yesterday: 46 °F (at 5:00 PM)
Minimum temperature yesterday: 35 °F (at 6:00 AM)
Average temperature yesterday: 40 °F

Past Weeks' High & Low Weather Summary

 TemperatureHumidityPressure
High47 °F (Apr 22, 11:00 AM)95% (May 5, 6:00 AM)30.34 "Hg (May 5, 6:00 AM)
Low15 °F (Apr 28, 6:00 AM)29% (Apr 22, 1:00 PM)29.26 "Hg (Apr 25, 4:00 PM)
Average34 °F74%29.70 "Hg
* Reported Apr 22 8:00 AM — May 7 8:00 AM, Odda, Weather by CustomWeather, © 2015

Note: Actual official high and low records may vary slightly from our data, if they occured in-between our weather recording intervals... More about our weather records

Advertising

Odda weather history for previous 24 hours

 ConditionsComfort  
Time TempWeatherWind HumidityBarometerVisibility
8:00 AM
Thu, May 7
35 °FChilly.1 mph92%29.50 "HgN/A
7:00 AM35 °FChilly.2 mph92%29.47 "HgN/A
6:00 AM35 °FChilly.2 mph91%29.50 "HgN/A
5:00 AM36 °FChilly.2 mph85%29.50 "HgN/A
4:00 AM35 °FChilly.2 mph91%29.50 "HgN/A
3:00 AM36 °FChilly.2 mph90%29.54 "HgN/A
2:00 AM36 °FChilly.1 mph87%29.54 "HgN/A
1:00 AM36 °FChilly.2 mph86%29.54 "HgN/A
12:00 AM37 °FChilly.5 mph84%29.55 "HgN/A
11:00 PM
Wed, May 6
36 °FChilly.2 mph90%29.56 "HgN/A
10:00 PM37 °FChilly.2 mph85%29.57 "HgN/A
9:00 PM38 °FChilly.1 mph82%29.57 "HgN/A
8:00 PM40 °FChilly.1 mph78%29.56 "HgN/A
7:00 PM41 °FQuite cool.2 mph70%29.55 "HgN/A
6:00 PM41 °FQuite cool.2 mph70%29.56 "HgN/A
5:00 PM46 °FCool.2 mph54%29.50 "HgN/A
4:00 PM45 °FQuite cool.1 mph60%29.54 "HgN/A
3:00 PM42 °FQuite cool.3 mph69%29.55 "HgN/A
2:00 PM43 °FQuite cool.1 mph65%29.54 "HgN/A
1:00 PM44 °FQuite cool.No wind65%29.50 "HgN/A
12:00 PM43 °FQuite cool.2 mph67%29.50 "HgN/A
11:00 AM40 °FQuite cool.2 mph71%29.50 "HgN/A
10:00 AM38 °FChilly.2 mph82%29.50 "HgN/A
Weather by CustomWeather, © 2015

See weather overviewHow to use our weather pages